TimeAKDT,TemperatureF,Dew PointF,Humidity,Sea Level PressureIn,VisibilityMPH,Wind Direction,Wind SpeedMPH,Gust SpeedMPH,PrecipitationIn,Events,Conditions,WindDirDegrees,DateUTC
12:53 AM,46.0,27.0,47,30.18,10.0,NNE,4.6,-,N/A,,Clear,30,2013-05-21 08:53:00
1:53 AM,46.0,26.1,46,30.16,10.0,NNW,8.1,-,N/A,,Scattered Clouds,340,2013-05-21 09:53:00
2:53 AM,44.1,27.0,51,30.15,10.0,Variable,6.9,-,N/A,,Partly Cloudy,0,2013-05-21 10:53:00
3:53 AM,45.0,27.0,49,30.14,10.0,North,6.9,-,N/A,,Clear,360,2013-05-21 11:53:00
4:53 AM,45.0,27.0,49,30.13,10.0,NNE,10.4,-,N/A,,Clear,30,2013-05-21 12:53:00
5:53 AM,46.0,28.0,50,30.12,10.0,NNE,9.2,-,N/A,,Clear,30,2013-05-21 13:53:00
6:53 AM,48.9,28.0,44,30.11,10.0,North,11.5,-,N/A,,Clear,10,2013-05-21 14:53:00
7:53 AM,51.1,28.9,43,30.10,10.0,NE,9.2,-,N/A,,Clear,50,2013-05-21 15:53:00
8:53 AM,54.0,30.0,40,30.09,10.0,NE,8.1,-,N/A,,Clear,50,2013-05-21 16:53:00
9:53 AM,57.9,32.0,37,30.06,10.0,NNE,11.5,-,N/A,,Clear,20,2013-05-21 17:53:00
10:53 AM,61.0,30.0,31,30.03,10.0,North,12.7,-,N/A,,Clear,10,2013-05-21 18:53:00
11:53 AM,64.0,30.0,28,30.01,10.0,North,12.7,25.3,N/A,,Clear,10,2013-05-21 19:53:00
12:53 PM,64.0,28.9,27,30.01,10.0,North,16.1,23.0,N/A,,Clear,10,2013-05-21 20:53:00
1:53 PM,64.9,28.9,26,29.99,10.0,North,17.3,25.3,N/A,,Clear,360,2013-05-21 21:53:00
2:53 PM,64.9,30.0,27,29.99,10.0,NNE,16.1,29.9,N/A,,Clear,30,2013-05-21 22:53:00
3:53 PM,66.0,28.0,24,29.99,10.0,North,11.5,24.2,N/A,,Clear,10,2013-05-21 23:53:00
4:53 PM,64.9,27.0,24,29.97,10.0,North,15.0,20.7,N/A,,Clear,360,2013-05-22 00:53:00
5:53 PM,64.0,27.0,25,29.97,10.0,North,12.7,-,N/A,,Clear,350,2013-05-22 01:53:00
6:53 PM,62.1,30.0,30,29.96,10.0,NNW,9.2,18.4,N/A,,Clear,330,2013-05-22 02:53:00
7:53 PM,59.0,30.9,35,29.97,10.0,Variable,4.6,-,N/A,,Clear,0,2013-05-22 03:53:00
8:53 PM,54.0,32.0,43,29.98,10.0,SW,3.5,-,N/A,,Clear,220,2013-05-22 04:53:00
9:53 PM,51.1,33.1,50,29.98,10.0,NNW,6.9,-,N/A,,Clear,340,2013-05-22 05:53:00
10:53 PM,50.0,33.1,52,29.98,10.0,Calm,Calm,-,N/A,,Clear,0,2013-05-22 06:53:00
11:53 PM,46.0,33.1,61,29.97,10.0,Calm,Calm,-,N/A,,Clear,0,2013-05-22 07:53:00